When you browse on this site, cookies collect data to enhance your experience and personalize the content and advertising you see.
Visit our Privacy Policy to learn more. By continuing to use the site, you agree to this use of cookies and data.
EN

Hourly Weather Vydne

Today, 23 September, Wednesday

Time Temperature Precipitation Wind Pressure Humidity
00:00 +14°C° 0 mm 1 mps 753 mmHg 33%
01:00 +13°C° 0 mm 1 mps 753 mmHg 34%
02:00 +13°C° 0 mm 1 mps 753 mmHg 34%
03:00 +13°C° 0 mm 1 mps 753 mmHg 36%
04:00 +12°C° 0 mm 1 mps 753 mmHg 37%
05:00 +12°C° 0 mm 1 mps 753 mmHg 39%
06:00 +14°C° 0 mm 1 mps 753 mmHg 35%
07:00 +16°C° 0 mm 2 mps 753 mmHg 32%
08:00 +18°C° 0 mm 2 mps 753 mmHg 27%
09:00 +20°C° 0 mm 3 mps 753 mmHg 24%
10:00 +22°C° 0 mm 3 mps 753 mmHg 21%
11:00 +25°C° 0 mm 3 mps 752 mmHg 17%
12:00 +26°C° 0 mm 3 mps 752 mmHg 16%
13:00 +27°C° 0 mm 3 mps 751 mmHg 14%
14:00 +28°C° 0 mm 3 mps 751 mmHg 13%
15:00 +27°C° 0 mm 2 mps 750 mmHg 15%
16:00 +25°C° 0 mm 2 mps 750 mmHg 16%
17:00 +24°C° 0 mm 2 mps 749 mmHg 17%
18:00 +21°C° 0 mm 2 mps 750 mmHg 19%
19:00 +19°C° 0 mm 2 mps 750 mmHg 20%
20:00 +17°C° 0 mm 2 mps 750 mmHg 22%
21:00 +17°C° 0 mm 2 mps 750 mmHg 22%
22:00 +16°C° 0 mm 2 mps 749 mmHg 22%
23:00 +16°C° 0 mm 2 mps 749 mmHg 22%

Tomorrow, 24 September, Thursday

Time Temperature Precipitation Wind Pressure Humidity
00:00 +15°C° 0 mm 2 mps 749 mmHg 25%
01:00 +15°C° 0 mm 2 mps 750 mmHg 28%
02:00 +14°C° 0 mm 1 mps 750 mmHg 32%
03:00 +14°C° 0 mm 1 mps 750 mmHg 38%
04:00 +14°C° 0 mm 1 mps 750 mmHg 43%
05:00 +14°C° 0 mm 2 mps 749 mmHg 49%
06:00 +15°C° 0 mm 2 mps 750 mmHg 45%
07:00 +17°C° 0 mm 3 mps 750 mmHg 40%
08:00 +19°C° 0 mm 3 mps 750 mmHg 36%
09:00 +22°C° 0 mm 3 mps 749 mmHg 33%
10:00 +25°C° 0 mm 4 mps 749 mmHg 29%
11:00 +27°C° 0 mm 4 mps 749 mmHg 26%
12:00 +28°C° 0 mm 4 mps 749 mmHg 26%
13:00 +28°C° 0 mm 4 mps 749 mmHg 26%
14:00 +29°C° 0 mm 4 mps 748 mmHg 25%
15:00 +28°C° 0 mm 3 mps 748 mmHg 27%
16:00 +27°C° 0 mm 2 mps 748 mmHg 29%
17:00 +26°C° 0 mm 2 mps 748 mmHg 30%
18:00 +24°C° 0 mm 2 mps 748 mmHg 33%
19:00 +23°C° 0 mm 1 mps 748 mmHg 35%
20:00 +21°C° 0 mm 1 mps 748 mmHg 38%
21:00 +20°C° 0 mm 2 mps 748 mmHg 42%
22:00 +19°C° 0 mm 2 mps 748 mmHg 47%
23:00 +19°C° 0 mm 2 mps 748 mmHg 51%

Day after tomorrow, 25 September, Friday

Time Temperature Precipitation Wind Pressure Humidity
00:00 +18°C° 0 mm 2 mps 748 mmHg 56%
01:00 +18°C° 0 mm 2 mps 748 mmHg 61%
02:00 +18°C° 0 mm 2 mps 748 mmHg 65%
03:00 +17°C° 0 mm 2 mps 748 mmHg 68%
04:00 +17°C° 0 mm 2 mps 748 mmHg 71%
05:00 +16°C° 0 mm 3 mps 748 mmHg 74%
06:00 +18°C° 0 mm 3 mps 748 mmHg 67%
07:00 +19°C° 0 mm 3 mps 748 mmHg 61%
08:00 +20°C° 0 mm 3 mps 748 mmHg 54%
09:00 +22°C° 0 mm 3 mps 748 mmHg 48%
10:00 +25°C° 0 mm 3 mps 748 mmHg 42%
11:00 +27°C° 0 mm 4 mps 747 mmHg 37%
12:00 +28°C° 0 mm 4 mps 747 mmHg 36%
13:00 +28°C° 0 mm 4 mps 747 mmHg 35%
14:00 +29°C° 0 mm 4 mps 746 mmHg 34%
15:00 +28°C° 0 mm 3 mps 746 mmHg 37%
16:00 +27°C° 0 mm 3 mps 746 mmHg 40%
17:00 +27°C° 0 mm 2 mps 746 mmHg 42%
18:00 +25°C° 0.3 mm 2 mps 746 mmHg 48%
19:00 +23°C° 0.3 mm 2 mps 746 mmHg 54%
20:00 +21°C° 0.3 mm 2 mps 746 mmHg 60%
21:00 +20°C° 0 mm 2 mps 746 mmHg 63%
22:00 +19°C° 0 mm 2 mps 746 mmHg 65%
23:00 +19°C° 0 mm 3 mps 746 mmHg 67%

26 September, Saturday

Time Temperature Precipitation Wind Pressure Humidity
00:00 +18°C° 0 mm 3 mps 746 mmHg 69%
01:00 +18°C° 0 mm 2 mps 745 mmHg 70%
02:00 +17°C° 0 mm 2 mps 745 mmHg 71%
03:00 +17°C° 0 mm 3 mps 745 mmHg 69%
04:00 +16°C° 0 mm 3 mps 745 mmHg 67%
05:00 +16°C° 0 mm 3 mps 745 mmHg 66%
06:00 +17°C° 0 mm 4 mps 745 mmHg 60%
07:00 +19°C° 0 mm 4 mps 745 mmHg 54%
08:00 +20°C° 0 mm 5 mps 745 mmHg 49%
09:00 +23°C° 0 mm 5 mps 745 mmHg 44%
10:00 +26°C° 0 mm 6 mps 745 mmHg 39%
11:00 +29°C° 0 mm 6 mps 745 mmHg 35%
12:00 +29°C° 0 mm 6 mps 744 mmHg 33%
13:00 +30°C° 0 mm 7 mps 744 mmHg 31%
14:00 +32°C° 0 mm 7 mps 743 mmHg 30%
15:00 +30°C° 0 mm 6 mps 743 mmHg 32%
16:00 +29°C° 0 mm 5 mps 743 mmHg 34%
17:00 +28°C° 0 mm 5 mps 743 mmHg 36%
18:00 +27°C° 0 mm 5 mps 743 mmHg 39%
19:00 +25°C° 0 mm 5 mps 743 mmHg 42%
20:00 +23°C° 0 mm 5 mps 743 mmHg 45%
21:00 +22°C° 0 mm 5 mps 743 mmHg 44%
22:00 +22°C° 0 mm 5 mps 743 mmHg 42%
23:00 +21°C° 0 mm 5 mps 743 mmHg 41%

27 September, Sunday

Time Temperature Precipitation Wind Pressure Humidity
00:00 +21°C° 0 mm 6 mps 742 mmHg 41%
01:00 +21°C° 0 mm 6 mps 742 mmHg 41%
02:00 +21°C° 0 mm 7 mps 742 mmHg 41%
03:00 +20°C° 0 mm 7 mps 742 mmHg 45%
04:00 +20°C° 0 mm 8 mps 742 mmHg 49%
05:00 +18°C° 0 mm 8 mps 742 mmHg 54%
06:00 +18°C° 0 mm 8 mps 742 mmHg 53%
07:00 +18°C° 0 mm 8 mps 742 mmHg 52%
08:00 +19°C° 0 mm 9 mps 742 mmHg 51%
09:00 +21°C° 0 mm 9 mps 742 mmHg 50%
10:00 +22°C° 0 mm 9 mps 742 mmHg 48%
11:00 +23°C° 0 mm 9 mps 742 mmHg 46%
12:00 +22°C° 0.8 mm 9 mps 742 mmHg 53%
13:00 +22°C° 0.8 mm 9 mps 742 mmHg 59%
14:00 +21°C° 0.8 mm 8 mps 742 mmHg 65%
15:00 +20°C° 1.8 mm 8 mps 742 mmHg 71%
16:00 +20°C° 1.8 mm 8 mps 742 mmHg 76%
17:00 +18°C° 1.8 mm 8 mps 742 mmHg 82%
18:00 +18°C° 0.6 mm 7 mps 742 mmHg 81%
19:00 +17°C° 0.6 mm 6 mps 742 mmHg 81%
20:00 +17°C° 0.6 mm 5 mps 743 mmHg 80%
21:00 +16°C° 0 mm 5 mps 743 mmHg 78%
22:00 +16°C° 0 mm 5 mps 744 mmHg 76%
23:00 +15°C° 0 mm 5 mps 744 mmHg 74%

28 September, Monday

Time Temperature Precipitation Wind Pressure Humidity
00:00 +14°C° 0 mm 4 mps 745 mmHg 74%
01:00 +13°C° 0 mm 4 mps 745 mmHg 75%
02:00 +12°C° 0 mm 3 mps 746 mmHg 76%
03:00 +12°C° 0 mm 3 mps 746 mmHg 78%
04:00 +12°C° 0 mm 3 mps 747 mmHg 81%
05:00 +11°C° 0 mm 3 mps 747 mmHg 84%
06:00 +13°C° 0 mm 2 mps 748 mmHg 79%
07:00 +15°C° 0 mm 2 mps 748 mmHg 74%
08:00 +16°C° 0 mm 2 mps 749 mmHg 69%
09:00 +18°C° 0 mm 3 mps 749 mmHg 61%
10:00 +19°C° 0 mm 4 mps 749 mmHg 53%
11:00 +21°C° 0 mm 4 mps 750 mmHg 45%
12:00 +22°C° 0 mm 4 mps 749 mmHg 42%
13:00 +23°C° 0 mm 4 mps 749 mmHg 39%
14:00 +25°C° 0 mm 3 mps 749 mmHg 36%
15:00 +23°C° 0 mm 4 mps 749 mmHg 38%
16:00 +22°C° 0 mm 4 mps 749 mmHg 40%
17:00 +22°C° 0 mm 4 mps 749 mmHg 42%
18:00 +21°C° 0 mm 5 mps 749 mmHg 44%
19:00 +20°C° 0 mm 5 mps 749 mmHg 46%
20:00 +20°C° 0 mm 5 mps 749 mmHg 47%
21:00 +19°C° 0 mm 5 mps 748 mmHg 50%
22:00 +19°C° 0 mm 5 mps 748 mmHg 52%
23:00 +17°C° 0 mm 5 mps 748 mmHg 54%
Show more